Location: Newark
(48.6676°N, 6.1917°E)
Time: 12:48:07
(UTC+00:00)

N. Korean satellite - Pass Details

Date: 08 December 2019
Orbit: 454 x 508 km, 97.2° (Epoch: 17 January)

Event Time Altitude Azimuth Distance (km) Brightness Sun altitude
Rises 04:17:32 0° 33° (NNE) 2,560 10.6 -28.1°
Reaches altitude 10° 04:21:00 10° 69° (ENE) 1,656 10.1 -27.5°
Maximum altitude 04:22:10 11° 88° (E) 1,569 10.1 -27.3°
Drops below altitude 10° 04:23:19 10° 107° (ESE) 1,641 10.2 -27.2°
Sets 04:26:41 0° 143° (SE) 2,495 10.7 -26.6°
